DAL86 KLAX-RJTT

Flight info

Callsign DAL86
Flight time N/A
Altitude 36000
Route SUMMR2 MCKEY DCT LIBBO DCT RAINS DCT SHENU DCT 42N130W 46N140W 49N150W/N0474F340 50N160W 50N170W 49N180E 46N170E 43N160E/N0477F360 DCT EMRON OTR9 AVBET Y809 POROT Y811 NOGIX Y807 LALID Y804 INUBO Y108 MESSE MESSEV
Aircraft A346/H-VGDW/C

Departure

Time 2026-05-07 13:27
Airport Los Angeles International Airport (KLAX)

Arrival

Time N/A
Airport Tokyo Haneda International Airport (RJTT)
Time Latitude Longitude Altitude Speed Heading
2026-05-07 13:12 33.94317 -118.41405 101 ft 0 kts 281°
2026-05-07 13:21 33.94315 -118.41397 101 ft 4 kts 284°
2026-05-07 13:22 33.94311 -118.41374 103 ft 4 kts 285°
2026-05-07 13:22 33.94302 -118.41346 102 ft 4 kts 304°
2026-05-07 13:22 33.94286 -118.41327 103 ft 4 kts 333°
2026-05-07 13:22 33.94265 -118.41320 102 ft 3 kts 353°
2026-05-07 13:23 33.94239 -118.41316 101 ft 4 kts 353°
2026-05-07 13:23 33.94230 -118.41315 101 ft 0 kts 353°
2026-05-07 13:24 33.94257 -118.41319 103 ft 10 kts 353°
2026-05-07 13:24 33.94372 -118.41338 102 ft 23 kts 354°
2026-05-07 13:25 33.94579 -118.41368 102 ft 36 kts 353°
2026-05-07 13:25 33.94725 -118.41145 103 ft 43 kts 82°
2026-05-07 13:25 33.94766 -118.40746 102 ft 52 kts 82°
2026-05-07 13:25 33.94818 -118.40282 102 ft 51 kts 81°
2026-05-07 13:26 33.94925 -118.40017 102 ft 24 kts 70°
2026-05-07 13:26 33.95002 -118.39939 103 ft 11 kts 351°
2026-05-07 13:26 33.95032 -118.40010 104 ft 11 kts 268°
2026-05-07 13:26 33.95023 -118.40105 105 ft 16 kts 262°
2026-05-07 13:27 33.94981 -118.40522 106 ft 84 kts 263°
2026-05-07 13:27 33.94882 -118.41476 106 ft 143 kts 263°
2026-05-07 13:27 33.94735 -118.42867 165 ft 181 kts 262°
2026-05-07 13:27 33.94583 -118.44276 1007 ft 162 kts 262°
2026-05-07 13:28 33.94434 -118.45615 1605 ft 162 kts 262°
2026-05-07 13:28 33.94282 -118.46998 1972 ft 172 kts 263°
2026-05-07 13:28 33.94117 -118.48475 2241 ft 182 kts 265°
2026-05-07 13:28 33.94059 -118.50031 2589 ft 189 kts 271°
2026-05-07 13:29 33.94044 -118.51666 2916 ft 202 kts 268°
2026-05-07 13:29 33.93970 -118.53417 3210 ft 216 kts 267°
2026-05-07 13:29 33.93857 -118.55294 3483 ft 233 kts 266°
2026-05-07 13:29 33.93714 -118.57307 3780 ft 249 kts 266°
2026-05-07 13:30 33.93552 -118.59459 4083 ft 266 kts 266°
2026-05-07 13:30 33.93375 -118.61734 4488 ft 276 kts 266°
2026-05-07 13:30 33.93192 -118.64055 5092 ft 279 kts 266°
2026-05-07 13:30 33.93014 -118.66363 5691 ft 281 kts 265°
2026-05-07 13:31 33.92834 -118.68729 6265 ft 284 kts 265°
2026-05-07 13:31 33.92649 -118.71121 6827 ft 288 kts 265°
2026-05-07 13:31 33.92461 -118.73532 7360 ft 291 kts 265°
2026-05-07 13:31 33.92269 -118.75981 7915 ft 295 kts 265°
2026-05-07 13:32 33.92075 -118.78457 8473 ft 298 kts 265°
2026-05-07 13:32 33.91879 -118.80964 9030 ft 302 kts 265°
2026-05-07 13:32 33.91740 -118.83509 9589 ft 306 kts 269°
2026-05-07 13:32 33.91766 -118.86087 10120 ft 309 kts 272°
2026-05-07 13:33 33.91846 -118.88716 10474 ft 321 kts 273°
2026-05-07 13:33 33.91905 -118.90522 10649 ft 330 kts 273°
2026-05-07 13:33 33.91995 -118.93350 10911 ft 344 kts 273°
2026-05-07 13:33 33.92085 -118.96298 11151 ft 358 kts 273°
2026-05-07 13:34 33.92245 -118.99353 11375 ft 372 kts 281°
2026-05-07 13:34 33.94666 -119.04946 11946 ft 389 kts 314°
2026-05-07 13:34 33.96529 -119.07324 12580 ft 391 kts 315°
2026-05-07 13:35 33.98415 -119.09708 13226 ft 393 kts 315°
2026-05-07 13:35 34.00300 -119.12101 13846 ft 395 kts 315°
2026-05-07 13:35 34.02193 -119.14518 14403 ft 397 kts 315°
2026-05-07 13:35 34.04093 -119.16957 14934 ft 400 kts 315°
2026-05-07 13:36 34.06004 -119.19415 15423 ft 403 kts 315°
2026-05-07 13:36 34.07937 -119.21909 15935 ft 406 kts 315°
2026-05-07 13:36 34.09846 -119.24377 16465 ft 408 kts 315°
2026-05-07 13:36 34.11792 -119.26894 16991 ft 410 kts 315°
2026-05-07 13:37 34.13740 -119.29415 17528 ft 412 kts 315°
2026-05-07 13:37 34.15708 -119.31966 18053 ft 415 kts 315°
2026-05-07 13:37 34.17679 -119.34523 18536 ft 417 kts 315°
2026-05-07 13:37 34.19663 -119.37096 18968 ft 420 kts 315°
2026-05-07 13:38 34.21659 -119.39685 19413 ft 422 kts 315°
2026-05-07 13:38 34.23663 -119.42288 19846 ft 424 kts 315°
2026-05-07 13:38 34.25681 -119.44912 20275 ft 427 kts 315°
2026-05-07 13:38 34.27702 -119.47543 20701 ft 429 kts 315°
2026-05-07 13:39 34.29745 -119.50204 21139 ft 431 kts 315°
2026-05-07 13:39 34.31798 -119.52880 21560 ft 434 kts 315°
2026-05-07 13:39 34.33854 -119.55561 21973 ft 436 kts 314°
2026-05-07 13:39 34.35926 -119.58264 22405 ft 438 kts 314°
2026-05-07 13:40 34.38006 -119.60983 22822 ft 440 kts 314°
2026-05-07 13:40 34.40095 -119.63717 23227 ft 443 kts 314°
2026-05-07 13:40 34.42192 -119.66461 23620 ft 445 kts 314°
2026-05-07 13:40 34.44303 -119.69228 23954 ft 448 kts 314°
2026-05-07 13:41 34.46422 -119.72007 24287 ft 450 kts 314°
2026-05-07 13:41 34.48548 -119.74798 24631 ft 451 kts 314°
2026-05-07 13:41 34.50686 -119.77606 24994 ft 453 kts 314°
2026-05-07 13:41 34.52829 -119.80423 25329 ft 455 kts 314°
2026-05-07 13:42 34.54984 -119.83257 25644 ft 457 kts 314°
2026-05-07 13:42 34.57145 -119.86101 25958 ft 459 kts 314°
2026-05-07 13:42 34.59287 -119.88922 26280 ft 461 kts 314°
2026-05-07 13:42 34.61466 -119.91796 26588 ft 463 kts 314°
2026-05-07 13:43 34.63650 -119.94678 26877 ft 465 kts 314°
2026-05-07 13:43 34.65843 -119.97575 27191 ft 466 kts 314°
2026-05-07 13:43 34.68048 -120.00490 27499 ft 468 kts 314°
2026-05-07 13:43 34.70258 -120.03414 27793 ft 470 kts 314°
2026-05-07 13:44 34.72481 -120.06357 28101 ft 472 kts 314°
2026-05-07 13:44 34.74708 -120.09308 28411 ft 473 kts 314°
2026-05-07 13:44 34.76937 -120.12264 28825 ft 472 kts 314°
2026-05-07 13:44 34.79121 -120.15165 29273 ft 470 kts 314°
2026-05-07 13:45 34.81362 -120.18144 29688 ft 469 kts 314°
2026-05-07 13:45 34.83564 -120.21073 30095 ft 468 kts 314°
2026-05-07 13:45 34.85760 -120.23997 30439 ft 467 kts 314°
2026-05-07 13:45 34.87924 -120.26879 30788 ft 466 kts 314°
2026-05-07 13:46 34.90110 -120.29792 31170 ft 463 kts 314°
2026-05-07 13:46 34.92279 -120.32687 31581 ft 461 kts 314°
2026-05-07 13:46 34.94434 -120.35565 31966 ft 458 kts 314°
2026-05-07 13:46 34.96578 -120.38431 32334 ft 456 kts 314°
2026-05-07 13:47 34.98715 -120.41290 32679 ft 454 kts 314°
2026-05-07 13:47 35.00839 -120.44134 32987 ft 453 kts 314°
2026-05-07 13:47 35.02962 -120.46979 33282 ft 452 kts 314°
2026-05-07 13:47 35.05081 -120.49819 33596 ft 451 kts 314°
2026-05-07 13:48 35.07192 -120.52653 33934 ft 449 kts 314°
2026-05-07 13:48 35.09287 -120.55467 34234 ft 447 kts 314°
2026-05-07 13:48 35.11374 -120.58272 34498 ft 445 kts 314°
2026-05-07 13:48 35.13458 -120.61076 34735 ft 444 kts 314°
2026-05-07 13:49 35.15536 -120.63874 34927 ft 444 kts 314°
2026-05-07 13:49 35.17589 -120.66640 35103 ft 445 kts 314°
2026-05-07 13:49 35.19670 -120.69447 35266 ft 445 kts 314°
2026-05-07 13:49 35.21751 -120.72255 35440 ft 445 kts 314°
2026-05-07 13:50 35.23835 -120.75070 35622 ft 445 kts 314°
2026-05-07 13:50 35.25915 -120.77882 35800 ft 445 kts 314°
2026-05-07 13:50 35.27989 -120.80690 35946 ft 445 kts 313°
2026-05-07 13:50 35.30070 -120.83509 36061 ft 446 kts 313°
2026-05-07 13:51 35.32152 -120.86332 36100 ft 446 kts 313°
2026-05-07 13:51 35.36316 -120.91983 36115 ft 446 kts 313°
2026-05-07 13:52 35.40470 -120.97628 36112 ft 446 kts 313°
2026-05-07 13:52 35.44630 -121.03293 36125 ft 447 kts 313°
2026-05-07 13:53 35.48786 -121.08971 36122 ft 447 kts 313°
2026-05-07 13:53 35.52837 -121.14768 36127 ft 447 kts 311°
2026-05-07 13:54 35.56866 -121.20599 36126 ft 446 kts 311°
2026-05-07 13:54 35.60865 -121.26379 36121 ft 447 kts 311°
2026-05-07 13:55 35.64899 -121.32209 36123 ft 448 kts 311°
2026-05-07 13:55 35.68945 -121.38064 36131 ft 447 kts 311°
2026-05-07 13:56 35.72976 -121.43907 36129 ft 447 kts 311°
2026-05-07 13:56 35.77005 -121.49757 36128 ft 447 kts 311°
2026-05-07 13:57 35.81031 -121.55611 36123 ft 448 kts 311°
2026-05-07 13:57 35.85063 -121.61484 36127 ft 448 kts 311°
2026-05-07 13:58 35.89094 -121.67368 36128 ft 448 kts 311°
2026-05-07 13:58 35.93099 -121.73222 36130 ft 448 kts 311°
2026-05-07 13:59 35.97120 -121.79111 36133 ft 448 kts 311°
2026-05-07 13:59 36.01303 -121.84836 36127 ft 449 kts 315°
2026-05-07 14:00 36.05797 -121.90209 36135 ft 449 kts 316°
2026-05-07 14:00 36.10311 -121.95550 36143 ft 449 kts 316°
2026-05-07 14:01 36.14826 -122.00902 36155 ft 449 kts 316°
2026-05-07 14:01 36.19336 -122.06261 36153 ft 449 kts 316°
2026-05-07 14:02 36.23853 -122.11636 36153 ft 450 kts 316°
2026-05-07 14:02 36.28343 -122.16991 36161 ft 450 kts 316°
2026-05-07 14:03 36.32857 -122.22383 36162 ft 450 kts 316°
2026-05-07 14:03 36.37372 -122.27787 36168 ft 451 kts 316°
2026-05-07 14:04 36.41882 -122.33193 36180 ft 450 kts 316°
2026-05-07 14:04 36.46402 -122.38618 36177 ft 452 kts 316°
2026-05-07 14:05 36.50928 -122.44062 36177 ft 453 kts 316°
2026-05-07 14:05 36.55462 -122.49525 36179 ft 453 kts 316°
2026-05-07 14:06 36.59959 -122.54954 36180 ft 452 kts 316°
2026-05-07 14:06 36.64474 -122.60413 36177 ft 452 kts 316°
2026-05-07 14:07 36.68995 -122.65883 36172 ft 454 kts 315°
2026-05-07 14:07 36.73529 -122.71385 36180 ft 454 kts 315°
2026-05-07 14:08 36.78057 -122.76890 36177 ft 454 kts 315°
2026-05-07 14:08 36.82590 -122.82407 36174 ft 454 kts 315°
2026-05-07 14:09 36.87084 -122.87888 36168 ft 454 kts 315°
2026-05-07 14:09 36.91615 -122.93420 36169 ft 456 kts 315°
2026-05-07 14:10 36.96151 -122.98973 36172 ft 456 kts 315°
2026-05-07 14:10 37.00684 -123.04530 36171 ft 456 kts 315°
2026-05-07 14:11 37.05221 -123.10103 36172 ft 456 kts 315°
2026-05-07 14:11 37.09752 -123.15676 36171 ft 456 kts 315°
2026-05-07 14:12 37.14288 -123.21264 36173 ft 457 kts 315°
2026-05-07 14:12 37.18821 -123.26877 36175 ft 457 kts 314°
2026-05-07 14:13 37.23303 -123.32478 36176 ft 457 kts 314°
2026-05-07 14:13 37.27813 -123.38125 36177 ft 457 kts 314°
2026-05-07 14:14 37.32320 -123.43776 36173 ft 457 kts 314°
2026-05-07 14:14 37.36823 -123.49431 36176 ft 457 kts 314°
2026-05-07 14:15 37.41315 -123.55081 36173 ft 456 kts 314°
2026-05-07 14:15 37.45777 -123.60703 36174 ft 456 kts 314°
2026-05-07 14:16 37.50297 -123.66409 36175 ft 456 kts 314°
2026-05-07 14:16 37.54753 -123.72040 36170 ft 457 kts 314°
2026-05-07 14:17 37.59249 -123.77736 36174 ft 457 kts 314°
2026-05-07 14:17 37.63748 -123.83447 36174 ft 458 kts 314°
2026-05-07 14:18 37.68240 -123.89161 36173 ft 458 kts 314°
2026-05-07 14:18 37.72728 -123.94878 36176 ft 458 kts 314°
2026-05-07 14:19 37.77223 -124.00611 36175 ft 459 kts 314°
2026-05-07 14:19 37.81691 -124.06325 36176 ft 459 kts 314°
2026-05-07 14:20 37.86186 -124.12083 36182 ft 459 kts 313°
2026-05-07 14:20 37.90678 -124.17848 36184 ft 460 kts 313°
2026-05-07 14:21 37.95161 -124.23611 36179 ft 460 kts 313°
2026-05-07 14:21 37.98902 -124.28427 36182 ft 460 kts 313°
2026-05-07 14:22 38.04131 -124.35176 36185 ft 461 kts 313°
2026-05-07 14:22 38.08627 -124.40989 36183 ft 461 kts 313°
2026-05-07 14:23 38.12385 -124.45853 36186 ft 460 kts 313°
2026-05-07 14:23 38.16880 -124.51683 36187 ft 462 kts 313°
2026-05-07 14:24 38.21351 -124.57495 36186 ft 463 kts 313°
2026-05-07 14:24 38.25857 -124.63363 36188 ft 463 kts 313°
2026-05-07 14:25 38.30354 -124.69229 36189 ft 463 kts 313°
2026-05-07 14:25 38.34851 -124.75106 36184 ft 463 kts 313°
2026-05-07 14:26 38.39357 -124.81007 36190 ft 464 kts 313°
2026-05-07 14:26 38.43864 -124.86922 36193 ft 465 kts 313°
2026-05-07 14:27 38.48367 -124.92840 36190 ft 464 kts 313°
2026-05-07 14:27 38.52868 -124.98768 36190 ft 464 kts 313°
2026-05-07 14:28 38.57378 -125.04718 36191 ft 466 kts 312°
2026-05-07 14:28 38.61894 -125.10690 36190 ft 467 kts 312°
2026-05-07 14:29 38.66373 -125.16622 36192 ft 467 kts 312°
2026-05-07 14:29 38.70888 -125.22614 36194 ft 467 kts 312°
2026-05-07 14:30 38.75396 -125.28609 36196 ft 467 kts 312°
2026-05-07 14:30 38.79912 -125.34625 36193 ft 468 kts 312°
2026-05-07 14:31 38.84425 -125.40650 36197 ft 468 kts 312°
2026-05-07 14:31 38.88943 -125.46694 36200 ft 468 kts 312°
2026-05-07 14:32 38.93454 -125.52738 36200 ft 468 kts 312°
2026-05-07 14:32 38.97933 -125.58752 36198 ft 469 kts 312°
2026-05-07 14:33 39.02442 -125.64820 36198 ft 469 kts 312°
2026-05-07 14:33 39.06948 -125.70894 36200 ft 469 kts 312°
2026-05-07 14:34 39.11447 -125.76972 36205 ft 469 kts 312°
2026-05-07 14:34 39.15952 -125.83069 36201 ft 469 kts 312°
2026-05-07 14:35 39.20453 -125.89173 36211 ft 469 kts 312°
2026-05-07 14:35 39.24953 -125.95288 36211 ft 469 kts 312°
2026-05-07 14:36 39.29449 -126.01410 36198 ft 469 kts 311°
2026-05-07 14:36 39.33943 -126.07540 36203 ft 469 kts 312°
2026-05-07 14:37 39.38425 -126.13669 36209 ft 469 kts 312°
2026-05-07 14:37 39.45157 -126.22893 36218 ft 469 kts 311°
2026-05-07 14:38 39.49635 -126.29048 36210 ft 469 kts 312°
2026-05-07 14:38 39.54080 -126.35166 36210 ft 469 kts 312°
2026-05-07 14:39 39.58551 -126.41333 36222 ft 469 kts 312°
2026-05-07 14:39 39.63003 -126.47488 36212 ft 467 kts 312°
2026-05-07 14:40 39.67450 -126.53645 36216 ft 467 kts 312°
2026-05-07 14:40 39.71888 -126.59803 36222 ft 467 kts 312°
2026-05-07 14:41 39.76324 -126.65975 36220 ft 466 kts 312°
2026-05-07 14:41 39.80757 -126.72150 36219 ft 465 kts 312°
2026-05-07 14:42 39.85143 -126.78275 36218 ft 465 kts 312°
2026-05-07 14:42 39.89551 -126.84444 36219 ft 464 kts 312°
2026-05-07 14:43 39.93947 -126.90602 36217 ft 464 kts 312°
2026-05-07 14:43 39.98341 -126.96774 36219 ft 463 kts 312°
2026-05-07 14:44 40.02706 -127.02951 36215 ft 462 kts 312°
2026-05-07 14:44 40.07036 -127.09172 36222 ft 462 kts 312°
2026-05-07 14:45 40.11361 -127.15403 36221 ft 462 kts 312°
2026-05-07 14:45 40.15645 -127.21583 36226 ft 461 kts 312°
2026-05-07 14:46 40.19953 -127.27805 36227 ft 461 kts 312°
2026-05-07 14:46 40.24255 -127.34031 36231 ft 461 kts 312°
2026-05-07 14:47 40.28562 -127.40277 36229 ft 461 kts 312°
2026-05-07 14:47 40.32860 -127.46522 36234 ft 461 kts 312°
2026-05-07 14:48 40.37149 -127.52769 36238 ft 460 kts 312°
2026-05-07 14:48 40.41427 -127.59012 36226 ft 459 kts 312°
2026-05-07 14:49 40.45674 -127.65220 36229 ft 459 kts 312°
2026-05-07 14:49 40.49939 -127.71469 36240 ft 458 kts 312°
2026-05-07 14:50 40.54189 -127.77710 36225 ft 457 kts 312°
2026-05-07 14:50 40.58437 -127.83957 36232 ft 457 kts 312°
2026-05-07 14:51 40.62673 -127.90202 36240 ft 457 kts 312°
2026-05-07 14:51 40.66910 -127.96461 36240 ft 456 kts 312°
2026-05-07 14:52 40.71133 -128.02712 36241 ft 456 kts 312°
2026-05-07 14:52 40.75350 -128.08968 36237 ft 456 kts 312°
2026-05-07 14:53 40.79565 -128.15231 36243 ft 455 kts 311°
2026-05-07 14:53 40.83765 -128.21489 36248 ft 455 kts 311°
2026-05-07 14:54 40.87942 -128.27725 36245 ft 455 kts 311°
2026-05-07 14:54 40.92135 -128.33992 36243 ft 455 kts 311°
2026-05-07 14:55 40.96351 -128.40314 36247 ft 454 kts 311°
2026-05-07 14:55 41.00504 -128.46552 36247 ft 454 kts 311°
2026-05-07 14:56 41.04686 -128.52839 36252 ft 454 kts 311°
2026-05-07 14:56 41.08859 -128.59137 36253 ft 454 kts 310°
2026-05-07 14:57 41.13026 -128.65438 36254 ft 454 kts 310°
2026-05-07 14:57 41.17194 -128.71746 36255 ft 454 kts 310°
2026-05-07 14:58 41.21361 -128.78072 36258 ft 454 kts 310°
2026-05-07 14:58 41.25519 -128.84400 36258 ft 454 kts 310°
2026-05-07 14:59 41.29679 -128.90738 36258 ft 454 kts 310°
2026-05-07 14:59 41.33812 -128.97048 36258 ft 455 kts 309°
2026-05-07 15:00 41.37969 -129.03415 36262 ft 455 kts 309°
2026-05-07 15:00 41.42120 -129.09784 36265 ft 455 kts 309°
2026-05-07 15:01 41.46281 -129.16176 36262 ft 456 kts 309°
2026-05-07 15:01 41.50440 -129.22586 36261 ft 456 kts 309°
2026-05-07 15:02 41.54591 -129.28997 36263 ft 456 kts 309°
2026-05-07 15:02 41.58713 -129.35374 36263 ft 456 kts 309°
2026-05-07 15:03 41.62865 -129.41811 36264 ft 456 kts 309°
2026-05-07 15:03 41.67006 -129.48244 36264 ft 456 kts 309°
2026-05-07 15:04 41.71149 -129.54691 36263 ft 456 kts 309°
2026-05-07 15:04 41.75287 -129.61149 36263 ft 456 kts 308°
2026-05-07 15:05 41.79420 -129.67614 36265 ft 456 kts 308°
2026-05-07 15:05 41.83554 -129.74087 36267 ft 457 kts 308°
2026-05-07 15:06 41.87693 -129.80589 36271 ft 457 kts 308°
2026-05-07 15:06 41.91799 -129.87055 36269 ft 457 kts 308°
2026-05-07 15:07 41.95927 -129.93567 36272 ft 457 kts 308°
2026-05-07 15:07 41.99922 -130.00202 36270 ft 455 kts 303°
2026-05-07 15:08 42.02870 -130.06066 36268 ft 454 kts 300°
2026-05-07 15:08 42.06254 -130.13237 36268 ft 454 kts 300°
2026-05-07 15:09 42.09635 -130.20426 36273 ft 453 kts 300°
2026-05-07 15:09 42.12999 -130.27600 36264 ft 452 kts 300°
2026-05-07 15:10 42.16358 -130.34777 36264 ft 452 kts 300°
2026-05-07 15:10 42.19717 -130.41968 36279 ft 452 kts 299°
2026-05-07 15:11 42.23040 -130.49093 36263 ft 451 kts 299°
2026-05-07 15:11 42.26378 -130.56275 36262 ft 451 kts 299°
2026-05-07 15:12 42.29710 -130.63458 36268 ft 451 kts 299°
2026-05-07 15:12 42.33039 -130.70647 36275 ft 449 kts 299°
2026-05-07 15:13 42.36350 -130.77820 36269 ft 448 kts 299°
2026-05-07 15:13 42.39651 -130.84990 36265 ft 448 kts 299°
2026-05-07 15:14 42.42949 -130.92168 36273 ft 448 kts 299°
2026-05-07 15:14 42.46240 -130.99342 36269 ft 448 kts 298°
2026-05-07 15:15 42.49519 -131.06517 36265 ft 447 kts 298°
2026-05-07 15:15 42.52778 -131.13662 36263 ft 447 kts 298°
2026-05-07 15:16 42.56051 -131.20852 36268 ft 447 kts 298°
2026-05-07 15:16 42.59316 -131.28042 36263 ft 447 kts 298°
2026-05-07 15:17 42.62572 -131.35236 36259 ft 447 kts 298°
2026-05-07 15:17 42.65830 -131.42448 36258 ft 447 kts 298°
2026-05-07 15:18 42.69083 -131.49654 36264 ft 447 kts 297°
2026-05-07 15:18 42.72332 -131.56885 36259 ft 447 kts 297°
2026-05-07 15:19 42.75577 -131.64125 36256 ft 447 kts 297°
2026-05-07 15:19 42.78812 -131.71360 36253 ft 447 kts 297°
2026-05-07 15:20 42.82050 -131.78615 36253 ft 447 kts 297°
2026-05-07 15:20 42.85279 -131.85869 36253 ft 447 kts 297°
2026-05-07 15:21 42.88504 -131.93130 36252 ft 447 kts 297°
2026-05-07 15:21 42.91704 -132.00347 36253 ft 448 kts 296°
2026-05-07 15:22 42.94927 -132.07641 36251 ft 448 kts 296°
2026-05-07 15:22 42.98150 -132.14950 36250 ft 448 kts 296°
2026-05-07 15:23 43.01367 -132.22267 36248 ft 449 kts 296°
2026-05-07 15:23 43.04586 -132.29601 36253 ft 450 kts 295°
2026-05-07 15:24 43.07802 -132.36959 36246 ft 450 kts 295°
2026-05-07 15:24 43.11012 -132.44320 36241 ft 450 kts 295°
2026-05-07 15:25 43.14221 -132.51694 36254 ft 450 kts 295°
2026-05-07 15:25 43.17412 -132.59036 36242 ft 451 kts 295°
2026-05-07 15:26 43.20615 -132.66436 36237 ft 451 kts 295°
2026-05-07 15:26 43.23822 -132.73861 36234 ft 451 kts 295°
2026-05-07 15:27 43.27023 -132.81284 36247 ft 452 kts 294°
2026-05-07 15:27 43.30231 -132.88748 36237 ft 454 kts 294°
2026-05-07 15:28 43.33434 -132.96223 36229 ft 454 kts 294°
2026-05-07 15:28 43.36634 -133.03710 36231 ft 454 kts 294°
2026-05-07 15:29 43.39835 -133.11205 36229 ft 454 kts 294°
2026-05-07 15:29 43.43031 -133.18720 36225 ft 455 kts 293°
2026-05-07 15:30 43.46222 -133.26246 36224 ft 454 kts 293°
2026-05-07 15:30 43.49385 -133.33722 36244 ft 454 kts 293°
2026-05-07 15:31 43.52575 -133.41272 36225 ft 455 kts 293°
2026-05-07 15:31 43.55752 -133.48823 36218 ft 455 kts 293°
2026-05-07 15:32 43.58923 -133.56378 36218 ft 455 kts 293°
2026-05-07 15:32 43.62096 -133.63953 36235 ft 455 kts 292°
2026-05-07 15:33 43.65267 -133.71544 36220 ft 456 kts 292°
2026-05-07 15:33 43.68432 -133.79145 36214 ft 456 kts 292°
2026-05-07 15:34 43.71595 -133.86758 36210 ft 456 kts 292°
2026-05-07 15:34 43.74756 -133.94385 36224 ft 457 kts 292°
2026-05-07 15:35 43.77912 -134.02024 36206 ft 457 kts 292°
2026-05-07 15:35 43.81048 -134.09635 36203 ft 457 kts 292°
2026-05-07 15:36 43.84199 -134.17300 36202 ft 457 kts 292°
2026-05-07 15:36 43.87349 -134.24984 36204 ft 459 kts 292°
2026-05-07 15:37 43.90501 -134.32694 36199 ft 459 kts 292°
2026-05-07 15:37 43.93624 -134.40351 36199 ft 459 kts 292°
2026-05-07 15:38 43.96765 -134.48075 36193 ft 459 kts 292°
2026-05-07 15:38 43.99896 -134.55794 36190 ft 458 kts 291°
2026-05-07 15:39 44.03021 -134.63521 36191 ft 458 kts 291°
2026-05-07 15:39 44.06146 -134.71268 36190 ft 458 kts 291°
2026-05-07 15:40 44.09266 -134.79026 36194 ft 460 kts 291°
2026-05-07 15:40 44.12391 -134.86819 36186 ft 461 kts 291°
2026-05-07 15:41 44.15517 -134.94632 36187 ft 461 kts 291°
2026-05-07 15:41 44.18635 -135.02446 36176 ft 461 kts 291°
2026-05-07 15:42 44.21750 -135.10273 36192 ft 462 kts 291°
2026-05-07 15:42 44.24867 -135.18131 36169 ft 462 kts 291°
2026-05-07 15:43 44.27978 -135.25994 36162 ft 462 kts 291°
2026-05-07 15:43 44.31085 -135.33867 36162 ft 462 kts 291°
2026-05-07 15:44 44.34174 -135.41724 36165 ft 465 kts 291°
2026-05-07 15:44 44.37291 -135.49667 36154 ft 466 kts 291°
2026-05-07 15:45 44.40424 -135.57673 36144 ft 466 kts 291°
2026-05-07 15:45 44.43512 -135.65587 36166 ft 466 kts 291°
2026-05-07 15:46 44.48182 -135.77602 36145 ft 468 kts 291°
2026-05-07 15:47 44.51294 -135.85636 36135 ft 468 kts 291°
2026-05-07 15:47 44.54396 -135.93665 36166 ft 468 kts 291°
2026-05-07 15:48 44.57500 -136.01729 36142 ft 470 kts 291°
2026-05-07 15:48 44.60601 -136.09804 36130 ft 470 kts 290°
2026-05-07 15:49 44.63701 -136.17898 36122 ft 469 kts 290°
2026-05-07 15:49 44.66790 -136.25991 36150 ft 470 kts 290°
2026-05-07 15:50 44.69868 -136.34083 36125 ft 472 kts 290°
2026-05-07 15:50 44.72966 -136.42243 36122 ft 472 kts 290°
2026-05-07 15:51 44.76059 -136.50413 36118 ft 472 kts 290°
2026-05-07 15:51 44.79144 -136.58590 36122 ft 474 kts 290°
2026-05-07 15:52 44.82243 -136.66832 36108 ft 475 kts 290°
2026-05-07 15:52 44.85335 -136.75073 36102 ft 475 kts 290°
2026-05-07 15:53 44.88421 -136.83325 36098 ft 475 kts 290°
2026-05-07 15:53 44.91509 -136.91613 36099 ft 478 kts 290°
2026-05-07 15:54 44.94083 -136.98538 36096 ft 479 kts 290°
2026-05-07 15:54 44.97176 -137.06874 36088 ft 478 kts 290°
2026-05-07 15:55 45.00761 -137.16575 36121 ft 479 kts 290°
2026-05-07 15:55 45.03327 -137.23546 36097 ft 482 kts 290°
2026-05-07 15:56 45.06429 -137.31986 36071 ft 483 kts 290°
2026-05-07 15:56 45.09520 -137.40423 36060 ft 482 kts 290°
2026-05-07 15:57 45.12607 -137.48879 36064 ft 482 kts 290°
2026-05-07 15:57 45.15682 -137.57327 36060 ft 482 kts 290°
2026-05-07 15:58 45.18753 -137.65791 36057 ft 482 kts 290°
2026-05-07 15:58 45.21815 -137.74256 36057 ft 481 kts 290°
2026-05-07 15:59 45.24872 -137.82742 36048 ft 484 kts 290°
2026-05-07 15:59 45.27917 -137.91215 36053 ft 485 kts 290°
2026-05-07 16:00 45.30982 -137.99763 36041 ft 484 kts 290°
2026-05-07 16:00 45.34038 -138.08315 36038 ft 484 kts 290°
2026-05-07 16:01 45.37087 -138.16890 36047 ft 487 kts 290°
2026-05-07 16:01 45.40151 -138.25519 36039 ft 488 kts 290°
2026-05-07 16:02 45.43204 -138.34142 36028 ft 488 kts 290°
2026-05-07 16:02 45.46254 -138.42791 36041 ft 488 kts 290°
2026-05-07 16:03 45.49288 -138.51433 36023 ft 491 kts 290°
2026-05-07 16:03 45.52349 -138.60161 36011 ft 491 kts 290°
2026-05-07 16:04 45.55403 -138.68903 36008 ft 491 kts 290°
2026-05-07 16:04 45.58455 -138.77673 36016 ft 493 kts 290°
2026-05-07 16:05 45.61507 -138.86469 35996 ft 494 kts 290°
2026-05-07 16:05 45.64555 -138.95281 35989 ft 494 kts 290°
2026-05-07 16:06 45.67578 -139.04048 35992 ft 494 kts 290°
2026-05-07 16:06 45.70614 -139.12895 35997 ft 496 kts 290°
2026-05-07 16:07 45.73662 -139.21795 35982 ft 497 kts 290°
2026-05-07 16:07 45.76698 -139.30688 35981 ft 496 kts 290°
2026-05-07 16:08 45.79725 -139.39587 35992 ft 497 kts 290°
2026-05-07 16:08 45.82761 -139.48555 35972 ft 500 kts 290°
2026-05-07 16:09 45.85783 -139.57495 35954 ft 500 kts 290°
2026-05-07 16:09 45.88817 -139.66504 35953 ft 500 kts 290°
2026-05-07 16:10 45.91841 -139.75522 35956 ft 502 kts 290°
2026-05-07 16:10 45.94871 -139.84585 35944 ft 503 kts 290°
2026-05-07 16:11 45.97901 -139.93678 35942 ft 503 kts 290°
2026-05-07 16:11 46.00977 -140.02733 35935 ft 504 kts 291°
2026-05-07 16:12 46.04225 -140.11732 35934 ft 508 kts 292°
2026-05-07 16:12 46.07473 -140.20698 35948 ft 507 kts 292°
2026-05-07 16:13 46.10721 -140.29712 35923 ft 506 kts 292°
2026-05-07 16:13 46.13958 -140.38744 35931 ft 506 kts 292°
2026-05-07 16:14 46.17192 -140.47807 35918 ft 508 kts 292°
2026-05-07 16:14 46.20426 -140.56889 35913 ft 508 kts 292°
2026-05-07 16:15 46.23651 -140.65981 35907 ft 508 kts 292°
2026-05-07 16:15 46.26854 -140.75042 35898 ft 508 kts 292°
2026-05-07 16:16 46.30063 -140.84155 35898 ft 508 kts 292°
2026-05-07 16:16 46.33265 -140.93278 35898 ft 508 kts 292°
2026-05-07 16:17 46.36464 -141.02424 35860 ft 508 kts 292°
2026-05-07 16:17 46.39678 -141.11669 35876 ft 515 kts 292°
2026-05-07 16:18 46.42893 -141.20912 35870 ft 516 kts 292°
2026-05-07 16:18 46.46123 -141.30232 35881 ft 516 kts 292°
2026-05-07 16:19 46.49340 -141.39560 35880 ft 516 kts 292°
2026-05-07 16:19 46.52550 -141.48897 35867 ft 516 kts 292°
2026-05-07 16:20 46.55753 -141.58247 35862 ft 516 kts 292°
2026-05-07 16:20 46.58948 -141.67607 35873 ft 516 kts 292°
2026-05-07 16:21 46.62133 -141.76983 35859 ft 517 kts 292°
2026-05-07 16:21 46.65317 -141.86375 35850 ft 517 kts 292°
2026-05-07 16:22 46.68492 -141.95777 35841 ft 517 kts 292°
2026-05-07 16:22 46.71664 -142.05211 35840 ft 517 kts 292°
2026-05-07 16:23 46.74828 -142.14652 35839 ft 517 kts 292°
2026-05-07 16:23 46.77981 -142.24089 35836 ft 517 kts 292°
2026-05-07 16:24 46.81107 -142.33479 35837 ft 517 kts 292°
2026-05-07 16:24 46.84241 -142.42937 35832 ft 517 kts 292°
2026-05-07 16:25 46.87375 -142.52421 35827 ft 517 kts 292°
2026-05-07 16:25 46.90502 -142.61919 35825 ft 517 kts 292°
2026-05-07 16:26 46.93619 -142.71427 35835 ft 517 kts 292°
2026-05-07 16:26 46.96727 -142.80944 35821 ft 517 kts 292°
2026-05-07 16:27 46.99829 -142.90469 35816 ft 517 kts 292°
2026-05-07 16:27 47.02922 -143.00004 35812 ft 517 kts 292°
2026-05-07 16:28 47.05984 -143.09483 35796 ft 517 kts 292°
2026-05-07 16:28 47.09060 -143.19038 35786 ft 517 kts 292°
2026-05-07 16:29 47.12124 -143.28589 35801 ft 517 kts 292°
2026-05-07 16:29 47.15185 -143.38171 35816 ft 516 kts 292°
2026-05-07 16:30 47.18232 -143.47743 35784 ft 516 kts 292°
2026-05-07 16:30 47.21275 -143.57340 35786 ft 516 kts 291°
2026-05-07 16:31 47.24285 -143.66869 35779 ft 516 kts 291°
2026-05-07 16:31 47.27307 -143.76471 35789 ft 516 kts 291°
2026-05-07 16:32 47.30319 -143.86080 35785 ft 515 kts 291°
2026-05-07 16:32 47.33317 -143.95678 35770 ft 515 kts 291°
2026-05-07 16:33 47.36307 -144.05287 35769 ft 515 kts 291°
2026-05-07 16:33 47.39288 -144.14904 35767 ft 515 kts 291°
2026-05-07 16:34 47.42261 -144.24533 35761 ft 515 kts 291°
2026-05-07 16:34 47.45229 -144.34182 35761 ft 515 kts 291°
2026-05-07 16:35 47.48187 -144.43834 35833 ft 515 kts 291°
2026-05-07 16:35 47.51126 -144.53494 35776 ft 515 kts 292°
2026-05-07 16:36 47.54056 -144.63115 35758 ft 515 kts 292°
2026-05-07 16:36 47.56992 -144.72800 35751 ft 515 kts 292°
2026-05-07 16:37 47.59917 -144.82494 35754 ft 515 kts 291°
2026-05-07 16:37 47.62833 -144.92196 35748 ft 514 kts 291°
2026-05-07 16:38 47.65742 -145.01914 35746 ft 514 kts 291°
2026-05-07 16:38 47.68638 -145.11638 35738 ft 514 kts 292°
2026-05-07 16:39 47.71531 -145.21372 35735 ft 514 kts 291°
2026-05-07 16:39 47.74411 -145.31106 35734 ft 514 kts 291°
2026-05-07 16:40 47.77265 -145.40792 35731 ft 514 kts 291°
2026-05-07 16:40 47.80131 -145.50560 35734 ft 514 kts 291°
2026-05-07 16:41 47.82989 -145.60335 35732 ft 514 kts 291°
2026-05-07 16:41 47.85838 -145.70122 35729 ft 514 kts 291°
2026-05-07 16:42 47.88677 -145.79916 35726 ft 514 kts 291°
2026-05-07 16:42 47.91490 -145.89657 35733 ft 514 kts 291°
2026-05-07 16:43 47.94312 -145.99462 35727 ft 513 kts 291°
2026-05-07 16:43 47.96648 -146.07619 35719 ft 513 kts 291°
2026-05-07 16:44 47.99448 -146.17428 35720 ft 513 kts 291°
2026-05-07 16:44 48.02245 -146.27264 35724 ft 513 kts 291°
2026-05-07 16:45 48.05024 -146.37076 35718 ft 511 kts 290°
2026-05-07 16:45 48.07791 -146.46889 35718 ft 511 kts 290°
2026-05-07 16:46 48.10553 -146.56726 35716 ft 511 kts 290°
2026-05-07 16:46 48.13303 -146.66557 35721 ft 511 kts 290°
2026-05-07 16:47 48.16022 -146.76319 35716 ft 510 kts 290°
2026-05-07 16:47 48.18752 -146.86157 35713 ft 510 kts 290°
2026-05-07 16:48 48.21470 -146.95998 35714 ft 510 kts 290°
2026-05-07 16:48 48.24181 -147.05850 35716 ft 510 kts 290°
2026-05-07 16:49 48.26880 -147.15701 35704 ft 509 kts 290°
2026-05-07 16:49 48.29568 -147.25556 35699 ft 509 kts 290°
2026-05-07 16:50 48.32247 -147.35415 35698 ft 509 kts 290°
2026-05-07 16:50 48.34919 -147.45286 35704 ft 509 kts 290°
2026-05-07 16:51 48.37578 -147.55158 35702 ft 509 kts 290°
2026-05-07 16:51 48.40228 -147.65039 35700 ft 509 kts 289°
2026-05-07 16:52 48.42873 -147.74940 35702 ft 509 kts 289°
2026-05-07 16:52 48.45496 -147.84799 35703 ft 509 kts 289°
2026-05-07 16:53 48.48122 -147.94715 35700 ft 509 kts 289°
2026-05-07 16:53 48.50741 -148.04646 35700 ft 509 kts 289°
2026-05-07 16:54 48.53352 -148.14583 35708 ft 509 kts 289°
2026-05-07 16:54 48.55958 -148.24541 35703 ft 508 kts 289°
2026-05-07 16:55 48.58549 -148.34496 35697 ft 508 kts 289°
2026-05-07 16:55 48.61129 -148.44454 35696 ft 508 kts 289°
2026-05-07 16:56 48.63705 -148.54429 35701 ft 508 kts 288°
2026-05-07 16:56 48.67535 -148.69348 35699 ft 508 kts 288°
2026-05-07 16:57 48.70088 -148.79354 35702 ft 508 kts 288°
2026-05-07 16:57 48.72631 -148.89362 35693 ft 508 kts 288°
2026-05-07 16:58 48.75166 -148.99373 35694 ft 508 kts 288°
2026-05-07 16:58 48.77690 -149.09394 35695 ft 508 kts 288°
2026-05-07 16:59 48.80204 -149.19422 35695 ft 508 kts 288°
2026-05-07 16:59 48.82710 -149.29460 35709 ft 508 kts 288°
2026-05-07 17:00 48.85205 -149.39492 35690 ft 507 kts 287°
2026-05-07 17:00 48.87692 -149.49546 35690 ft 507 kts 287°
2026-05-07 17:01 48.90166 -149.59591 35688 ft 507 kts 287°
2026-05-07 17:01 48.92620 -149.69601 35698 ft 507 kts 287°
2026-05-07 17:02 48.95077 -149.79659 35684 ft 505 kts 287°
2026-05-07 17:02 48.97516 -149.89708 35689 ft 505 kts 287°
2026-05-07 17:03 48.99837 -149.99834 35687 ft 503 kts 283°
2026-05-07 17:03 49.01519 -150.10154 35696 ft 501 kts 278°
2026-05-07 17:04 49.03002 -150.20536 35691 ft 500 kts 278°
2026-05-07 17:04 49.04476 -150.30912 35686 ft 500 kts 278°
2026-05-07 17:05 49.05941 -150.41227 35685 ft 500 kts 278°
2026-05-07 17:05 49.07409 -150.51610 35676 ft 500 kts 278°
2026-05-07 17:06 49.08867 -150.61982 35675 ft 497 kts 278°
2026-05-07 17:06 49.10308 -150.72310 35673 ft 497 kts 278°
2026-05-07 17:07 49.11740 -150.82648 35674 ft 497 kts 278°
2026-05-07 17:07 49.13164 -150.92993 35674 ft 497 kts 278°
2026-05-07 17:08 49.14567 -151.03262 35677 ft 495 kts 278°
2026-05-07 17:08 49.15975 -151.13638 35674 ft 494 kts 278°
2026-05-07 17:09 49.17352 -151.23864 35671 ft 494 kts 278°
2026-05-07 17:09 49.18732 -151.34178 35667 ft 494 kts 277°
2026-05-07 17:10 49.20100 -151.44492 35676 ft 493 kts 278°
2026-05-07 17:10 49.21457 -151.54781 35672 ft 492 kts 277°
2026-05-07 17:11 49.22801 -151.65047 35664 ft 492 kts 277°
2026-05-07 17:11 49.24137 -151.75332 35660 ft 491 kts 277°
2026-05-07 17:12 49.25462 -151.85609 35659 ft 491 kts 277°
2026-05-07 17:12 49.26779 -151.95899 35670 ft 492 kts 277°
2026-05-07 17:13 49.28082 -152.06186 35664 ft 492 kts 277°
2026-05-07 17:13 49.29373 -152.16409 35665 ft 491 kts 277°
2026-05-07 17:14 49.30664 -152.26718 35670 ft 491 kts 277°
2026-05-07 17:14 49.31940 -152.36999 35666 ft 490 kts 277°
2026-05-07 17:15 49.33206 -152.47270 35665 ft 489 kts 277°
2026-05-07 17:15 49.34461 -152.57538 35667 ft 489 kts 277°
2026-05-07 17:16 49.35709 -152.67827 35666 ft 489 kts 277°
2026-05-07 17:16 49.36946 -152.78108 35680 ft 488 kts 277°
2026-05-07 17:17 49.38171 -152.88360 35675 ft 488 kts 277°
2026-05-07 17:17 49.39379 -152.98557 35673 ft 487 kts 277°
2026-05-07 17:18 49.40584 -153.08805 35677 ft 487 kts 277°
2026-05-07 17:18 49.41781 -153.19071 35701 ft 487 kts 277°
2026-05-07 17:19 49.42966 -153.29319 35693 ft 486 kts 277°
2026-05-07 17:19 49.44142 -153.39569 35689 ft 486 kts 277°
2026-05-07 17:20 49.45308 -153.49810 35687 ft 486 kts 276°
2026-05-07 17:20 49.46466 -153.60077 35703 ft 486 kts 276°
2026-05-07 17:21 49.47615 -153.70337 35706 ft 487 kts 276°
2026-05-07 17:21 49.48749 -153.80562 35722 ft 487 kts 276°
2026-05-07 17:22 49.49879 -153.90861 35713 ft 488 kts 276°
2026-05-07 17:22 49.51004 -154.01169 35713 ft 487 kts 277°
2026-05-07 17:23 49.52123 -154.11479 35732 ft 487 kts 277°
2026-05-07 17:23 49.53229 -154.21776 35721 ft 487 kts 276°
2026-05-07 17:24 49.54326 -154.32098 35728 ft 487 kts 276°
2026-05-07 17:24 49.55415 -154.42424 35729 ft 488 kts 276°
2026-05-07 17:25 49.56491 -154.52751 35750 ft 487 kts 276°
2026-05-07 17:25 49.57546 -154.63002 35744 ft 485 kts 276°
2026-05-07 17:26 49.58606 -154.73282 35744 ft 486 kts 276°
2026-05-07 17:26 49.59653 -154.83591 35756 ft 486 kts 276°
2026-05-07 17:27 49.60696 -154.93908 35749 ft 487 kts 276°
2026-05-07 17:27 49.61715 -155.04234 35762 ft 486 kts 276°
2026-05-07 17:28 49.62739 -155.14571 35754 ft 486 kts 276°
2026-05-07 17:28 49.63753 -155.24880 35760 ft 485 kts 276°
2026-05-07 17:29 49.64753 -155.35153 35769 ft 486 kts 276°
2026-05-07 17:29 49.65749 -155.45500 35774 ft 488 kts 275°
2026-05-07 17:30 49.66721 -155.55872 35785 ft 485 kts 276°
2026-05-07 17:30 49.67695 -155.66208 35781 ft 485 kts 277°
2026-05-07 17:31 49.68508 -155.74869 35789 ft 486 kts 277°
2026-05-07 17:31 49.69464 -155.85163 35781 ft 487 kts 276°
2026-05-07 17:32 49.70415 -155.95535 35790 ft 487 kts 275°
2026-05-07 17:32 49.71347 -156.05904 35798 ft 486 kts 276°
2026-05-07 17:33 49.72272 -156.16257 35796 ft 485 kts 276°
2026-05-07 17:33 49.73201 -156.26613 35811 ft 486 kts 276°
2026-05-07 17:34 49.74115 -156.36981 35799 ft 486 kts 275°
2026-05-07 17:34 49.75015 -156.47371 35810 ft 486 kts 276°
2026-05-07 17:35 49.75901 -156.57696 35810 ft 486 kts 275°
2026-05-07 17:35 49.76782 -156.68056 35803 ft 485 kts 275°
2026-05-07 17:36 49.77659 -156.78441 35820 ft 486 kts 275°
2026-05-07 17:36 49.78527 -156.88835 35814 ft 485 kts 275°
2026-05-07 17:37 49.79377 -156.99202 35834 ft 485 kts 275°
2026-05-07 17:37 49.80217 -157.09542 35829 ft 484 kts 275°
2026-05-07 17:38 49.81048 -157.19839 35819 ft 484 kts 275°
2026-05-07 17:38 49.81878 -157.30226 35830 ft 485 kts 275°
2026-05-07 17:39 49.82689 -157.40593 35831 ft 484 kts 275°
2026-05-07 17:39 49.83492 -157.50951 35830 ft 483 kts 275°
2026-05-07 17:40 49.84292 -157.61323 35834 ft 485 kts 274°
2026-05-07 17:40 49.85078 -157.71676 35844 ft 486 kts 275°
2026-05-07 17:41 49.85856 -157.82076 35838 ft 485 kts 275°
2026-05-07 17:41 49.86627 -157.92474 35840 ft 485 kts 274°
2026-05-07 17:42 49.87389 -158.02860 35836 ft 485 kts 274°
2026-05-07 17:42 49.88138 -158.13277 35843 ft 485 kts 274°
2026-05-07 17:43 49.88880 -158.23686 35850 ft 484 kts 274°
2026-05-07 17:43 49.89613 -158.34078 35850 ft 484 kts 274°
2026-05-07 17:44 49.90337 -158.44473 35847 ft 484 kts 274°
2026-05-07 17:44 49.91049 -158.54891 35851 ft 484 kts 274°
2026-05-07 17:45 49.91751 -158.65286 35857 ft 484 kts 274°
2026-05-07 17:45 49.92444 -158.75632 35847 ft 484 kts 274°
2026-05-07 17:46 49.93128 -158.86050 35851 ft 484 kts 274°
2026-05-07 17:46 49.93803 -158.96454 35851 ft 484 kts 274°
2026-05-07 17:47 49.94470 -159.06853 35855 ft 484 kts 274°
2026-05-07 17:47 49.95127 -159.17267 35861 ft 483 kts 274°
2026-05-07 17:48 49.95772 -159.27662 35858 ft 483 kts 274°
2026-05-07 17:48 49.96410 -159.38069 35860 ft 483 kts 273°
2026-05-07 17:49 49.97035 -159.48418 35866 ft 483 kts 273°
2026-05-07 17:49 49.97655 -159.58860 35866 ft 486 kts 273°
2026-05-07 17:50 49.98268 -159.69341 35862 ft 486 kts 273°
2026-05-07 17:50 49.98872 -159.79828 35863 ft 486 kts 273°
2026-05-07 17:51 49.99461 -159.90231 35862 ft 486 kts 273°
2026-05-07 17:51 50.00042 -160.00700 35862 ft 486 kts 272°
2026-05-07 17:52 50.00510 -160.11184 35866 ft 485 kts 271°
2026-05-07 17:52 50.00934 -160.21673 35869 ft 485 kts 271°
2026-05-07 17:53 50.01354 -160.32168 35862 ft 485 kts 271°
2026-05-07 17:53 50.01770 -160.42668 35863 ft 485 kts 271°
2026-05-07 17:54 50.02177 -160.53153 35874 ft 485 kts 271°
2026-05-07 17:54 50.02575 -160.63632 35870 ft 485 kts 271°
2026-05-07 17:55 50.02964 -160.74115 35866 ft 485 kts 271°
2026-05-07 17:55 50.03342 -160.84539 35866 ft 485 kts 271°
2026-05-07 17:56 50.03712 -160.95030 35860 ft 485 kts 271°
2026-05-07 17:56 50.04074 -161.05528 35860 ft 485 kts 271°
2026-05-07 17:57 50.04366 -161.14245 35863 ft 485 kts 271°
2026-05-07 17:57 50.04767 -161.26515 35863 ft 485 kts 271°
2026-05-07 17:58 50.05100 -161.37015 35863 ft 485 kts 271°
2026-05-07 17:58 50.05421 -161.47451 35864 ft 485 kts 270°
2026-05-07 17:59 50.05735 -161.57965 35864 ft 485 kts 270°
2026-05-07 17:59 50.06039 -161.68480 35860 ft 485 kts 270°
2026-05-07 18:00 50.06334 -161.78985 35862 ft 485 kts 270°
2026-05-07 18:00 50.06620 -161.89502 35863 ft 485 kts 270°
2026-05-07 18:01 50.06895 -162.00018 35861 ft 486 kts 270°
2026-05-07 18:01 50.07162 -162.10546 35858 ft 486 kts 270°
2026-05-07 18:02 50.07545 -162.26332 35857 ft 486 kts 270°
2026-05-07 18:03 50.07788 -162.36856 35857 ft 486 kts 270°
2026-05-07 18:03 50.08019 -162.47324 35859 ft 486 kts 270°
2026-05-07 18:04 50.08243 -162.57868 35855 ft 486 kts 270°
2026-05-07 18:04 50.08459 -162.68416 35855 ft 486 kts 270°
2026-05-07 18:05 50.08664 -162.78973 35855 ft 486 kts 270°
2026-05-07 18:05 50.08859 -162.89509 35857 ft 486 kts 270°
2026-05-07 18:06 50.09043 -163.00044 35860 ft 486 kts 270°
2026-05-07 18:06 50.09222 -163.10620 35851 ft 490 kts 269°
2026-05-07 18:07 50.09390 -163.21242 35854 ft 490 kts 269°
2026-05-07 18:07 50.09548 -163.31808 35852 ft 490 kts 269°
2026-05-07 18:08 50.09695 -163.42450 35849 ft 491 kts 269°
2026-05-07 18:08 50.09835 -163.53083 35849 ft 491 kts 269°
2026-05-07 18:09 50.09965 -163.63742 35849 ft 491 kts 269°
2026-05-07 18:09 50.10085 -163.74388 35837 ft 490 kts 269°
2026-05-07 18:10 50.10194 -163.85035 35840 ft 491 kts 269°
2026-05-07 18:10 50.10293 -163.95702 35844 ft 492 kts 269°
2026-05-07 18:11 50.10386 -164.06372 35843 ft 492 kts 269°
2026-05-07 18:11 50.10467 -164.17047 35843 ft 492 kts 269°
2026-05-07 18:12 50.10539 -164.27728 35844 ft 492 kts 269°
2026-05-07 18:12 50.10598 -164.38316 35842 ft 492 kts 269°
2026-05-07 18:13 50.10651 -164.49011 35839 ft 492 kts 269°
2026-05-07 18:13 50.10693 -164.59684 35822 ft 492 kts 269°
2026-05-07 18:14 50.10725 -164.70374 35835 ft 492 kts 269°
2026-05-07 18:14 50.10746 -164.81047 35829 ft 493 kts 269°
2026-05-07 18:15 50.10757 -164.91782 35831 ft 496 kts 269°
2026-05-07 18:15 50.10762 -165.02537 35823 ft 496 kts 269°
2026-05-07 18:16 50.10755 -165.13305 35826 ft 496 kts 269°
2026-05-07 18:16 50.10738 -165.24063 35819 ft 497 kts 269°
2026-05-07 18:17 50.10709 -165.34787 35809 ft 496 kts 269°
2026-05-07 18:17 50.10674 -165.45545 35816 ft 497 kts 268°
2026-05-07 18:18 50.10626 -165.56311 35816 ft 495 kts 268°
2026-05-07 18:18 50.10580 -165.65263 35814 ft 497 kts 268°
2026-05-07 18:19 50.10514 -165.76026 35806 ft 496 kts 268°
2026-05-07 18:19 50.10440 -165.86806 35799 ft 497 kts 268°
2026-05-07 18:20 50.10354 -165.97579 35803 ft 496 kts 268°
2026-05-07 18:20 50.10259 -166.08333 35796 ft 496 kts 268°
2026-05-07 18:21 50.10154 -166.19102 35796 ft 497 kts 268°
2026-05-07 18:21 50.10037 -166.29891 35805 ft 497 kts 268°
2026-05-07 18:22 50.09914 -166.40618 35790 ft 498 kts 268°
2026-05-07 18:22 50.09778 -166.51412 35797 ft 497 kts 268°
2026-05-07 18:23 50.09633 -166.62221 35790 ft 500 kts 268°
2026-05-07 18:23 50.09475 -166.73065 35784 ft 500 kts 268°
2026-05-07 18:24 50.09308 -166.83925 35793 ft 500 kts 268°
2026-05-07 18:24 50.09134 -166.94770 35783 ft 501 kts 268°
2026-05-07 18:25 50.08947 -167.05617 35780 ft 500 kts 267°
2026-05-07 18:25 50.08752 -167.16384 35784 ft 501 kts 267°
2026-05-07 18:26 50.08544 -167.27228 35768 ft 500 kts 267°
2026-05-07 18:26 50.08328 -167.38068 35765 ft 500 kts 267°
2026-05-07 18:27 50.08102 -167.48915 35765 ft 501 kts 267°
2026-05-07 18:27 50.07864 -167.59753 35770 ft 500 kts 267°
2026-05-07 18:28 50.07617 -167.70590 35767 ft 500 kts 267°
2026-05-07 18:28 50.07360 -167.81416 35764 ft 500 kts 267°
2026-05-07 18:29 50.07093 -167.92264 35769 ft 500 kts 267°
2026-05-07 18:29 50.06816 -168.03089 35762 ft 500 kts 267°
2026-05-07 18:30 50.06528 -168.13923 35756 ft 500 kts 266°
2026-05-07 18:30 50.06233 -168.24676 35758 ft 500 kts 266°
2026-05-07 18:31 50.05925 -168.35514 35773 ft 500 kts 266°
2026-05-07 18:31 50.05607 -168.46369 35755 ft 502 kts 266°
2026-05-07 18:32 50.05278 -168.57233 35753 ft 502 kts 266°
2026-05-07 18:32 50.04939 -168.68104 35749 ft 502 kts 266°
2026-05-07 18:33 50.04590 -168.78966 35753 ft 502 kts 266°
2026-05-07 18:33 50.04231 -168.89814 35748 ft 502 kts 266°
2026-05-07 18:34 50.03862 -169.00671 35755 ft 502 kts 266°
2026-05-07 18:34 50.03482 -169.11552 35749 ft 502 kts 266°
2026-05-07 18:35 50.03091 -169.22419 35751 ft 502 kts 266°
2026-05-07 18:35 50.02693 -169.33213 35745 ft 502 kts 266°
2026-05-07 18:36 50.02283 -169.44068 35744 ft 502 kts 266°
2026-05-07 18:36 50.01863 -169.54930 35744 ft 502 kts 265°
2026-05-07 18:37 50.01431 -169.65812 35744 ft 502 kts 265°
2026-05-07 18:37 50.00990 -169.76680 35744 ft 502 kts 265°
2026-05-07 18:38 50.00538 -169.87538 35742 ft 502 kts 265°
2026-05-07 18:38 50.00074 -169.98406 35742 ft 502 kts 265°
2026-05-07 18:39 49.99527 -170.09176 35751 ft 503 kts 264°
2026-05-07 18:39 49.98896 -170.20035 35748 ft 504 kts 264°
2026-05-07 18:40 49.98261 -170.30914 35741 ft 504 kts 264°
2026-05-07 18:40 49.97621 -170.41781 35741 ft 504 kts 264°
2026-05-07 18:41 49.96973 -170.52658 35737 ft 504 kts 264°
2026-05-07 18:41 49.96320 -170.63453 35743 ft 504 kts 263°
2026-05-07 18:42 49.95653 -170.74325 35738 ft 504 kts 263°
2026-05-07 18:42 49.94975 -170.85188 35733 ft 504 kts 263°
2026-05-07 18:43 49.94287 -170.96063 35739 ft 505 kts 263°
2026-05-07 18:43 49.93593 -171.06857 35732 ft 505 kts 263°
2026-05-07 18:44 49.92885 -171.17715 35735 ft 505 kts 263°
2026-05-07 18:44 49.92166 -171.28572 35736 ft 505 kts 263°
2026-05-07 18:45 49.91439 -171.39418 35727 ft 505 kts 263°
2026-05-07 18:45 49.90699 -171.50283 35728 ft 505 kts 263°
2026-05-07 18:46 49.89950 -171.61140 35732 ft 505 kts 263°
2026-05-07 18:46 49.89190 -171.71996 35733 ft 505 kts 263°
2026-05-07 18:47 49.88421 -171.82844 35728 ft 505 kts 262°
2026-05-07 18:47 49.87644 -171.93661 35728 ft 504 kts 262°
2026-05-07 18:48 49.86862 -172.04387 35726 ft 504 kts 262°
2026-05-07 18:48 49.86064 -172.15194 35728 ft 504 kts 262°
2026-05-07 18:49 49.85256 -172.25994 35721 ft 503 kts 262°
2026-05-07 18:49 49.84441 -172.36777 35718 ft 502 kts 262°
2026-05-07 18:50 49.83616 -172.47533 35722 ft 502 kts 262°
2026-05-07 18:50 49.82780 -172.58303 35721 ft 502 kts 262°
2026-05-07 18:51 49.81936 -172.69046 35719 ft 502 kts 262°
2026-05-07 18:51 49.81082 -172.79795 35719 ft 501 kts 261°
2026-05-07 18:52 49.80219 -172.90524 35717 ft 501 kts 261°
2026-05-07 18:52 49.79347 -173.01227 35720 ft 501 kts 261°
2026-05-07 18:53 49.78471 -173.11861 35724 ft 501 kts 261°
2026-05-07 18:53 49.77579 -173.22558 35726 ft 500 kts 261°
2026-05-07 18:54 49.76679 -173.33217 35731 ft 497 kts 261°
2026-05-07 18:54 49.75776 -173.43824 35727 ft 496 kts 261°
2026-05-07 18:55 49.74864 -173.54420 35722 ft 496 kts 261°
2026-05-07 18:55 49.73941 -173.65024 35723 ft 496 kts 261°
2026-05-07 18:56 49.73010 -173.75595 35730 ft 495 kts 261°
2026-05-07 18:56 49.72072 -173.86140 35731 ft 494 kts 261°
2026-05-07 18:57 49.71124 -173.96685 35736 ft 494 kts 261°
2026-05-07 18:57 49.70167 -174.07211 35743 ft 494 kts 261°
2026-05-07 18:58 49.69207 -174.17672 35739 ft 494 kts 261°
2026-05-07 18:58 49.68231 -174.28206 35746 ft 495 kts 261°
2026-05-07 18:59 49.67243 -174.38745 35744 ft 495 kts 260°
2026-05-07 18:59 49.66248 -174.49248 35751 ft 494 kts 260°
2026-05-07 19:00 49.65241 -174.59786 35759 ft 494 kts 260°
2026-05-07 19:00 49.64226 -174.70282 35764 ft 491 kts 260°
2026-05-07 19:01 49.63214 -174.80676 35773 ft 491 kts 261°
2026-05-07 19:01 49.62186 -174.91068 35773 ft 488 kts 261°
2026-05-07 19:02 49.61163 -175.01399 35772 ft 487 kts 261°
2026-05-07 19:02 49.60129 -175.11731 35767 ft 487 kts 261°
2026-05-07 19:03 49.59084 -175.22059 35788 ft 487 kts 261°
2026-05-07 19:03 49.58029 -175.32389 35787 ft 486 kts 261°
2026-05-07 19:04 49.56965 -175.42718 35787 ft 487 kts 260°
2026-05-07 19:04 49.55890 -175.53041 35798 ft 486 kts 261°
2026-05-07 19:05 49.54810 -175.63319 35794 ft 484 kts 261°
2026-05-07 19:05 49.53911 -175.71835 35803 ft 484 kts 261°
2026-05-07 19:06 49.52641 -175.83735 35809 ft 484 kts 260°
2026-05-07 19:06 49.51171 -175.97363 35814 ft 484 kts 260°
2026-05-07 19:07 49.50057 -176.07568 35825 ft 481 kts 260°
2026-05-07 19:07 49.48940 -176.17745 35826 ft 481 kts 260°
2026-05-07 19:08 49.47816 -176.27896 35830 ft 481 kts 260°
2026-05-07 19:08 49.46678 -176.38079 35839 ft 481 kts 260°
2026-05-07 19:09 49.45533 -176.48163 35846 ft 475 kts 261°
2026-05-07 19:09 49.44403 -176.58142 35847 ft 473 kts 261°
2026-05-07 19:10 49.43274 -176.68029 35847 ft 472 kts 261°
2026-05-07 19:10 49.42126 -176.77983 35849 ft 472 kts 261°
2026-05-07 19:11 49.40971 -176.87919 35854 ft 471 kts 261°
2026-05-07 19:11 49.39805 -176.97827 35862 ft 468 kts 261°
2026-05-07 19:12 49.38643 -177.07681 35868 ft 468 kts 261°
2026-05-07 19:12 49.37477 -177.17492 35875 ft 468 kts 261°
2026-05-07 19:13 49.36299 -177.27324 35878 ft 469 kts 261°
2026-05-07 19:13 49.35109 -177.37165 35880 ft 468 kts 261°
2026-05-07 19:14 49.33916 -177.46953 35880 ft 466 kts 261°
2026-05-07 19:14 49.32722 -177.56687 35883 ft 466 kts 261°
2026-05-07 19:15 49.31513 -177.66472 35888 ft 466 kts 261°
2026-05-07 19:15 49.30297 -177.76245 35896 ft 466 kts 261°
2026-05-07 19:16 49.29072 -177.86021 35895 ft 466 kts 261°
2026-05-07 19:16 49.27840 -177.95783 35900 ft 466 kts 261°
2026-05-07 19:17 49.26599 -178.05535 35904 ft 466 kts 261°
2026-05-07 19:17 49.25351 -178.15282 35901 ft 466 kts 261°
2026-05-07 19:18 49.24094 -178.25026 35903 ft 466 kts 261°
2026-05-07 19:18 49.22837 -178.34692 35906 ft 465 kts 260°
2026-05-07 19:19 49.21566 -178.44415 35916 ft 465 kts 260°
2026-05-07 19:19 49.20286 -178.54132 35910 ft 465 kts 260°
2026-05-07 19:20 49.18999 -178.63835 35914 ft 465 kts 260°
2026-05-07 19:20 49.17702 -178.73533 35914 ft 463 kts 260°
2026-05-07 19:21 49.16403 -178.83198 35912 ft 463 kts 260°
2026-05-07 19:21 49.15098 -178.92848 35913 ft 463 kts 260°
2026-05-07 19:22 49.13785 -179.02492 35915 ft 463 kts 260°
2026-05-07 19:22 49.12464 -179.12126 35910 ft 463 kts 260°
2026-05-07 19:23 49.11137 -179.21720 35917 ft 460 kts 260°
2026-05-07 19:23 49.09808 -179.31292 35922 ft 460 kts 260°
2026-05-07 19:24 49.08470 -179.40857 35915 ft 460 kts 260°
2026-05-07 19:24 49.07136 -179.50319 35922 ft 457 kts 260°
2026-05-07 19:25 49.05791 -179.59828 35923 ft 457 kts 260°
2026-05-07 19:25 49.04437 -179.69330 35926 ft 457 kts 260°
2026-05-07 19:26 49.03076 -179.78814 35925 ft 457 kts 260°
2026-05-07 19:26 49.01706 -179.88290 35924 ft 457 kts 260°
2026-05-07 19:27 49.00278 -179.97697 35928 ft 458 kts 257°
2026-05-07 19:27 48.99076 179.96265 35924 ft 459 kts 254°
2026-05-07 19:28 48.98798 179.95041 35928 ft 472 kts 253°